FENGYUN 1C DEB

Satellite information

Favourite Embed

Satellite Type and Status

DEBRISIN ORBIT

Key statistics

Satellite FENGYUN 1C DEB at a glance.

Uptime

9555

Days in orbit

Revolutions

≈ 13.8

Per day

Orbit

SSO

Sun Synchronous Orbit

Inclination

99.3

Latest

Satellite identification and parameters

Extended collection of information and parameters for FENGYUN 1C DEB.

Object identification

Identified? True

Debris? True

Object name: FENGYUN 1C DEB

International designator: 1999-025AHG

Object number (NORAD): 30494

Object ID (CCSDS): 30494

Country: PEOPLES REPUBLIC OF CHINA (PRC)

Current information (Y/N): Y

RCS size: SMALL

Orbital parameters

Period: 104.439 minutes

Inclination: 99.2933 deg

SMA: 7346.299 km

Apoapsis: 1103.998 km

Periapsis: 832.33 km

RAAN: 225.3507 deg

Eccentricy: 0.0184901

Argument of periapsis: 285.3089 deg

Mean anomaly: 72.7695 deg

Mean motion: 13.7879556 rev/day

Mean motion (dot): 0.00000848 rev/day2

B* drag term: 0.00077299 1/REarth

Two-line elements (TLE)

Creation date: July 5, 2025, 10:56 p.m.

Reference frame: TEME

Reference center: EARTH

Epoch: July 5, 2025, 9:26 p.m. UTC

TLE line 0: 0 FENGYUN 1C DEB

TLE line 1: 1 30494U 99025AHG 25186.89333619 .00000848 00000-0 77299-3 0 9996

TLE line 2: 2 30494 99.2933 225.3507 0184901 285.3089 72.7695 13.78795560923910

Live tracking on map

Real-time ground track for satellite FENGYUN 1C DEB.

In-orbit conjunctions

A list of the most updated potential collisions computed for object FENGYUN 1C DEB.

Target Orbit TCA Probability of collision Miss distance Type
THOR ABLESTAR DEB LEO 2025-05-28 22:42:44 0.0001793277 122.0 (m) DEBRIS

Associated space launch

Chinese polar orbiting meteorological satellite

FENGYUN 1C DEB was lifted into orbit during the mission ‘Long March 4B | Feng Yun 1C’, on board a Long March 4B space rocket.

The launch took place on May 10, 1999, 1:33 a.m. from Launch Complex 7.

For more information about the launch, click the button.

Launch to space Long March 4B | Feng Yun 1C
Long March 4B | Feng Yun 1C

Agency: N/A

Status: Launch Successful

Launch date: May 10, 1999, 1:33 a.m. UTC

Rocket: Long March 4B

Launch pad: Launch Complex 7

Location: Taiyuan Satellite Launch Center, People's Republic of China

...

Latest news about this satellite

There are no fresh news available about this satellite. Check back as we update our databases every day.


Newsletter sign-up

Weekly statistics, charts and insights to help you stay on top of the space industry.